QPF
0.01 0.01 0.01 0.01 0.00 0.01 0.00 0.00 0.00 0.00 0.00 0.00 0.00 0.00 0.00 0.00 0.00 0.00 0.00 0.00 0.00 0.00 0.00 0.00 0.00 0.00 0.00 0.00 0.00 0.00 0.00 0.00 0.00 0.00 0.00 0.00 0.00 0.00 0.00 0.00 0.00 0.00 0.00 0.00 0.00
0.00 0.00 0.00 0.00 0.00 0.00 0.00 0.00 0.00 0.00 0.00 0.00 0.00 0.00 0.00 0.00 0.00 0.00 0.00 0.00 0.00 0.00 0.00 0.00 0.00 0.00 0.00 0.00 0.00 0.00 0.00 0.00 0.00 0.00 0.00 0.00 0.00 0.00 0.00 0.00 0.00 0.00 0.00 0.00 0.00
0.01 0.01 0.01 0.01 0.00 0.00 0.00 0.00 0.00 0.00 0.00 0.00 0.00 0.00 0.00 0.00 0.00 0.00 0.00 0.00 0.00 0.00 0.00 0.00 0.00 0.00 0.00 0.00 0.00 0.00 0.00 0.00 0.00 0.00 0.00 0.00 0.00 0.00 0.00 0.00 0.00 0.00 0.00 0.00 0.00
0.01 0.01 0.01 0.01 0.01 0.00 0.00 0.00 0.00 0.00 0.00 0.00 0.00 0.00 0.00 0.00 0.00 0.00 0.00 0.00 0.00 0.00 0.00 0.00 0.00 0.00 0.00 0.00 0.00 0.00 0.00 0.00 0.00 0.00 0.00 0.00 0.00 0.00 0.00 0.00 0.00 0.00 0.00 0.00 0.00
0.01 0.01 0.01 0.01 0.01 0.01 0.00 0.00 0.00 0.00 0.00 0.00 0.00 0.00 0.00 0.00 0.00 0.00 0.00 0.00 0.00 0.00 0.00 0.00 0.00 0.00 0.00 0.00 0.00 0.00 0.00 0.00 0.00 0.00 0.00 0.00 0.00 0.00 0.00 0.00 0.00 0.00 0.00 0.00 0.00
0.01 0.01 0.01 0.01 0.01 0.01 0.00 0.00 0.00 0.00 0.00 0.00 0.00 0.00 0.00 0.00 0.00 0.00 0.00 0.00 0.00 0.00 0.00 0.00 0.00 0.00 0.00 0.00 0.00 0.00 0.00 0.00 0.00 0.00 0.00 0.00 0.00 0.00 0.00 0.00 0.00 0.00 0.00 0.00 0.00
0.01 0.01 0.01 0.01 0.01 0.01 0.00 0.00 0.00 0.00 0.00 0.00 0.00 0.00 0.00 0.00 0.00 0.00 0.00 0.00 0.00 0.00 0.00 0.00 0.00 0.00 0.00 0.00 0.00 0.00 0.00 0.00 0.00 0.00 0.00 0.00 0.00 0.00 0.00 0.00 0.00 0.00 0.00 0.00 0.00
0.01 0.01 0.01 0.01 0.01 0.00 0.00 0.00 0.00 0.00 0.00 0.00 0.00 0.00 0.00 0.00 0.00 0.00 0.00 0.00 0.00 0.00 0.00 0.00 0.00 0.00 0.00 0.00 0.00 0.00 0.00 0.00 0.00 0.00 0.00 0.00 0.00 0.00 0.00 0.00 0.00 0.00 0.00 0.00 0.00
0.00 0.00 0.00 0.00 0.00 0.00 0.00 0.00 0.00 0.00 0.00 0.00 0.00 0.00 0.00 0.00 0.00 0.00 0.00 0.00 0.00 0.00 0.00 0.00 0.00 0.00 0.00 0.00 0.00 0.00 0.00 0.00 0.00 0.00 0.00 0.00 0.00 0.00 0.00 0.00 0.00 0.00 0.00 0.00 0.00
0.00 0.00 0.00 0.00 0.00 0.00 0.00 0.00 0.00 0.00 0.00 0.00 0.00 0.00 0.00 0.00 0.00 0.00 0.00 0.00 0.00 0.00 0.00 0.00 0.00 0.00 0.00 0.00 0.00 0.00 0.00 0.00 0.00 0.00 0.00 0.00 0.00 0.00 0.00 0.00 0.00 0.00 0.00 0.00 0.00
0.00 0.00 0.00 0.00 0.00 0.00 0.00 0.00 0.00 0.00 0.00 0.00 0.00 0.00 0.00 0.00 0.00 0.00 0.00 0.00 0.00 0.00 0.00 0.00 0.00 0.00 0.00 0.00 0.00 0.00 0.00 0.00 0.00 0.00 0.00 0.00 0.00 0.00 0.00 0.00 0.00 0.00 0.00 0.00 0.00
0.00 0.01 0.00 0.00 0.00 0.00 0.00 0.00 0.00 0.00 0.00 0.00 0.00 0.00 0.00 0.00 0.00 0.00 0.00 0.00 0.00 0.00 0.00 0.00 0.00 0.00 0.00 0.00 0.00 0.00 0.00 0.00 0.00 0.00 0.00 0.00 0.00 0.00 0.00 0.00 0.00 0.00 0.00 0.00 0.00
0.01 0.01 0.00 0.00 0.00 0.00 0.00 0.00 0.00 0.00 0.00 0.00 0.00 0.00 0.00 0.00 0.00 0.00 0.00 0.00 0.00 0.00 0.00 0.00 0.00 0.00 0.00 0.00 0.00 0.00 0.00 0.00 0.00 0.00 0.00 0.00 0.00 0.00 0.00 0.00 0.00 0.00 0.00 0.00 0.00
0.01 0.01 0.00 0.00 0.00 0.00 0.00 0.00 0.00 0.00 0.00 0.00 0.00 0.00 0.00 0.00 0.00 0.00 0.00 0.00 0.00 0.00 0.00 0.00 0.00 0.00 0.00 0.00 0.00 0.00 0.00 0.00 0.00 0.00 0.00 0.00 0.00 0.00 0.00 0.00 0.00 0.00 0.00 0.00 0.00
0.00 0.00 0.00 0.00 0.00 0.00 0.00 0.00 0.00 0.00 0.00 0.00 0.00 0.00 0.00 0.00 0.00 0.00 0.00 0.00 0.00 0.00 0.00 0.00 0.00 0.00 0.00 0.00 0.00 0.00 0.00 0.00 0.00 0.00 0.00 0.00 0.00 0.00 0.00 0.00 0.00 0.00 0.00 0.00 0.00
0.00 0.00 0.00 0.00 0.00 0.00 0.00 0.00 0.00 0.00 0.00 0.00 0.00 0.00 0.00 0.00 0.00 0.00 0.00 0.00 0.00 0.00 0.00 0.00 0.00 0.00 0.00 0.00 0.00 0.00 0.00 0.00 0.00 0.00 0.00 0.00 0.00 0.00 0.00 0.00 0.00 0.00 0.00 0.00 0.00
0.00 0.00 0.00 0.00 0.00 0.00 0.00 0.00 0.00 0.00 0.00 0.00 0.00 0.00 0.00 0.00 0.00 0.00 0.00 0.00 0.00 0.00 0.00 0.00 0.00 0.00 0.00 0.00 0.00 0.00 0.00 0.00 0.00 0.00 0.00 0.00 0.00 0.00 0.00 0.00 0.00 0.00 0.00 0.00 0.00
0.00 0.00 0.00 0.00 0.00 0.00 0.00 0.00 0.00 0.00 0.00 0.00 0.00 0.00 0.00 0.00 0.00 0.00 0.00 0.00 0.00 0.00 0.00 0.00 0.00 0.00 0.00 0.00 0.00 0.00 0.00 0.00 0.00 0.00 0.00 0.00 0.00 0.00 0.00 0.00 0.00 0.00 0.00 0.00 0.00
0.00 0.00 0.00 0.00 0.00 0.00 0.00 0.00 0.00 0.00 0.00 0.00 0.00 0.00 0.00 0.00 0.00 0.00 0.00 0.00 0.00 0.00 0.00 0.00 0.00 0.00 0.00 0.00 0.00 0.00 0.00 0.00 0.00 0.00 0.00 0.00 0.00 0.00 0.00 0.00 0.00 0.00 0.00 0.00 0.00
0.00 0.00 0.00 0.00 0.00 0.00 0.00 0.00 0.00 0.00 0.00 0.00 0.00 0.00 0.00 0.00 0.00 0.00 0.00 0.00 0.00 0.00 0.00 0.00 0.00 0.00 0.00 0.00 0.00 0.00 0.00 0.00 0.00 0.00 0.00 0.00 0.00 0.00 0.00 0.00 0.00 0.00 0.00 0.00 0.00
0.00 0.00 0.00 0.00 0.00 0.00 0.00 0.00 0.00 0.00 0.00 0.00 0.00 0.00 0.00 0.00 0.00 0.00 0.00 0.00 0.00 0.00 0.00 0.00 0.00 0.00 0.00 0.00 0.00 0.00 0.00 0.00 0.00 0.00 0.00 0.00 0.00 0.00 0.00 0.00 0.00 0.00 0.00 0.00 0.00
0.00 0.00 0.00 0.00 0.00 0.00 0.00 0.00 0.00 0.00 0.00 0.00 0.00 0.00 0.00 0.00 0.00 0.00 0.00 0.00 0.00 0.00 0.00 0.00 0.00 0.00 0.00 0.00 0.00 0.00 0.00 0.00 0.00 0.00 0.00 0.00 0.00 0.00 0.00 0.00 0.00 0.00 0.00 0.00 0.00
0.00 0.00 0.00 0.00 0.00 0.00 0.00 0.00 0.00 0.00 0.00 0.00 0.00 0.00 0.00 0.00 0.00 0.00 0.00 0.00 0.00 0.00 0.00 0.00 0.01 0.01 0.00 0.00 0.00 0.00 0.00 0.00 0.00 0.00 0.01 0.00 0.00 0.00 0.00 0.00 0.00 0.00 0.00 0.00 0.00
0.00 0.00 0.00 0.00 0.00 0.00 0.00 0.00 0.00 0.00 0.00 0.00 0.00 0.00 0.00 0.00 0.00 0.00 0.00 0.00 0.00 0.00 0.00 0.02 0.01 0.01 0.00 0.00 0.00 0.00 0.00 0.00 0.00 0.03 0.00 0.00 0.00 0.00 0.00 0.00 0.00 0.00 0.00 0.00 0.00
0.00 0.00 0.00 0.00 0.00 0.00 0.00 0.00 0.00 0.00 0.00 0.00 0.00 0.00 0.00 0.00 0.00 0.00 0.00 0.00 0.00 0.00 0.00 0.00 0.01 0.00 0.00 0.00 0.01 0.00 0.00 0.00 0.00 0.00 0.00 0.00 0.00 0.00 0.00 0.00 0.00 0.00 0.00 0.00 0.00
0.00 0.00 0.00 0.00 0.00 0.00 0.00 0.00 0.00 0.00 0.00 0.00 0.00 0.00 0.00 0.00 0.00 0.00 0.00 0.00 0.00 0.00 0.00 0.00 0.01 0.01 0.00 0.00 0.00 0.00 0.00 0.00 0.00 0.00 0.00 0.00 0.00 0.00 0.00 0.00 0.00 0.00 0.00 0.00 0.00
0.00 0.00 0.00 0.00 0.00 0.00 0.00 0.00 0.00 0.00 0.00 0.00 0.00 0.00 0.00 0.00 0.00 0.00 0.00 0.00 0.00 0.00 0.00 0.00 0.00 0.02 0.01 0.00 0.00 0.00 0.00 0.00 0.00 0.00 0.00 0.00 0.00 0.00 0.00 0.00 0.00 0.00 0.00 0.00 0.00
MSLP
1020.34 1019.94 1019.60 1019.25 1018.94 1018.65 1018.37 1018.09 1017.74 1017.44 1017.15 1016.90 1016.64 1016.42 1016.15 1015.83 1015.49 1015.06 1014.04 1012.50 1012.48 1012.11 1012.19 1011.94 1011.63 1011.36 1011.18 1010.87 1010.64 1010.58 1010.04 1008.93 1008.80 1008.79 1008.42 1008.28 1007.97 1007.84 1007.69 1007.36 1007.30 1007.04 1006.84 1006.76 1006.43
1020.22 1019.81 1019.46 1019.14 1018.81 1018.45 1018.15 1017.80 1017.52 1017.14 1016.88 1016.64 1016.37 1016.14 1015.88 1015.59 1014.97 1013.84 1012.24 1012.28 1012.26 1012.19 1012.00 1011.76 1011.48 1011.21 1011.00 1010.90 1010.60 1010.08 1009.30 1008.90 1008.79 1008.48 1008.31 1008.36 1008.25 1008.24 1007.76 1007.16 1007.10 1007.10 1006.98 1006.74 1006.37
1020.10 1019.66 1019.24 1018.87 1018.54 1018.25 1017.87 1017.58 1017.28 1016.98 1016.67 1016.41 1016.14 1015.91 1015.66 1015.33 1014.43 1012.02 1011.51 1011.94 1012.03 1012.12 1012.12 1012.05 1011.76 1011.47 1011.20 1010.94 1010.41 1009.86 1008.99 1009.23 1008.80 1008.29 1008.12 1007.67 1008.03 1008.29 1007.94 1006.94 1007.16 1007.15 1006.75 1006.39 1006.15
1019.96 1019.54 1019.10 1018.67 1018.27 1017.92 1017.61 1017.34 1017.05 1016.74 1016.53 1016.26 1016.05 1015.80 1015.39 1015.13 1013.46 1011.69 1011.62 1011.89 1012.00 1012.11 1012.00 1011.91 1011.66 1011.27 1010.97 1010.67 1010.53 1010.19 1009.58 1009.22 1008.89 1008.46 1008.19 1007.90 1007.99 1008.17 1008.02 1007.13 1007.55 1007.30 1007.02 1006.62 1006.04
1019.84 1019.39 1018.95 1018.54 1018.07 1017.60 1017.25 1016.98 1016.77 1016.49 1016.27 1016.09 1015.90 1015.63 1015.25 1014.25 1012.30 1011.57 1011.70 1011.85 1012.08 1012.09 1011.83 1011.70 1011.43 1011.20 1010.81 1010.76 1010.74 1010.44 1009.82 1009.57 1009.19 1008.90 1008.38 1008.22 1007.88 1008.01 1007.72 1007.65 1007.54 1007.23 1006.95 1006.62 1006.00
1019.66 1019.17 1018.69 1018.21 1017.74 1017.37 1017.03 1016.74 1016.53 1016.33 1016.08 1015.88 1015.73 1015.50 1014.98 1013.21 1011.54 1011.53 1011.73 1012.00 1011.92 1011.95 1011.74 1011.68 1011.35 1011.19 1010.91 1010.75 1010.70 1010.54 1010.14 1009.71 1009.36 1008.94 1008.62 1008.15 1007.48 1007.99 1007.42 1007.51 1007.35 1007.25 1006.76 1006.70 1006.09
1019.41 1018.96 1018.42 1017.92 1017.41 1017.01 1016.66 1016.41 1016.17 1016.01 1015.83 1015.71 1015.57 1015.34 1014.57 1012.21 1011.37 1011.72 1011.76 1011.62 1011.67 1011.61 1011.40 1011.42 1011.33 1011.24 1011.07 1010.77 1010.85 1010.57 1010.41 1009.82 1009.42 1008.93 1008.40 1008.10 1007.54 1007.15 1007.93 1007.51 1007.32 1006.96 1006.68 1006.64 1006.35
1019.21 1018.71 1018.14 1017.64 1017.13 1016.66 1016.24 1015.97 1015.73 1015.52 1015.46 1015.47 1015.47 1015.19 1013.17 1011.34 1011.31 1011.44 1011.42 1011.25 1011.41 1011.45 1011.41 1011.24 1011.26 1011.19 1011.13 1011.19 1011.05 1010.77 1010.70 1009.63 1009.21 1008.97 1008.49 1008.34 1007.11 1008.15 1008.18 1008.02 1007.31 1007.47 1007.15 1006.63 1006.52
1018.87 1018.37 1017.87 1017.34 1016.80 1016.19 1015.72 1015.40 1014.98 1014.79 1015.06 1015.25 1015.32 1014.72 1012.13 1011.03 1011.02 1010.66 1010.71 1010.66 1010.81 1011.10 1011.25 1011.14 1011.23 1011.41 1011.39 1011.09 1010.94 1010.95 1010.12 1009.93 1009.36 1009.38 1008.84 1008.37 1007.73 1008.17 1008.36 1008.11 1007.69 1007.24 1007.33 1006.86 1006.53
1018.54 1018.08 1017.55 1016.97 1016.47 1015.91 1015.27 1014.83 1014.82 1014.80 1015.17 1015.16 1014.80 1014.47 1011.94 1011.23 1010.81 1010.56 1010.40 1010.63 1010.57 1010.83 1011.00 1011.17 1011.32 1011.26 1011.41 1011.10 1010.54 1010.65 1010.46 1010.16 1009.57 1009.47 1008.95 1008.55 1008.37 1008.20 1008.26 1008.32 1007.93 1007.50 1007.24 1007.16 1006.64
1018.25 1017.72 1017.19 1016.60 1016.17 1015.85 1015.16 1014.79 1015.04 1014.86 1014.59 1013.87 1013.45 1012.85 1011.90 1011.32 1010.92 1010.31 1010.28 1010.47 1010.61 1010.76 1010.80 1011.28 1011.02 1010.70 1010.83 1011.08 1011.08 1011.08 1010.83 1010.39 1010.01 1009.68 1009.39 1008.61 1008.33 1008.23 1007.97 1007.72 1007.53 1007.49 1007.25 1006.77 1006.72
1018.07 1017.44 1016.85 1016.32 1015.84 1015.61 1015.54 1014.66 1014.80 1014.83 1013.98 1012.92 1012.75 1012.41 1011.80 1011.56 1011.07 1010.29 1010.23 1010.42 1010.49 1010.69 1011.15 1011.29 1010.74 1010.78 1011.06 1011.11 1011.16 1011.10 1010.80 1010.41 1010.20 1010.01 1009.76 1008.71 1007.88 1007.42 1006.88 1006.83 1006.83 1006.88 1006.88 1006.85 1006.87
1017.73 1017.15 1016.55 1016.00 1015.50 1015.18 1014.90 1014.69 1014.57 1014.55 1013.91 1012.46 1011.94 1011.54 1011.23 1011.40 1010.82 1010.14 1010.03 1010.12 1010.30 1010.63 1010.92 1010.88 1010.78 1010.87 1011.04 1010.96 1010.93 1010.93 1010.83 1010.79 1010.71 1010.35 1009.80 1008.99 1006.97 1006.83 1006.62 1006.54 1006.58 1006.64 1006.91 1007.01 1007.06
1017.34 1016.78 1016.27 1015.83 1015.67 1015.20 1014.68 1014.49 1014.34 1014.22 1013.31 1012.15 1011.25 1010.66 1010.88 1010.84 1010.42 1009.87 1009.82 1009.97 1010.34 1010.56 1010.91 1010.83 1010.85 1010.78 1010.81 1010.68 1010.70 1010.65 1011.01 1011.11 1011.06 1010.83 1009.91 1010.07 1007.40 1006.76 1006.67 1006.25 1006.58 1006.70 1006.59 1006.71 1006.82
1016.95 1016.37 1015.97 1015.91 1015.48 1014.97 1014.71 1014.37 1014.16 1014.08 1012.91 1011.59 1010.65 1010.20 1010.37 1010.57 1010.33 1009.75 1009.80 1009.87 1009.91 1010.40 1010.93 1010.49 1010.55 1010.60 1010.49 1010.36 1010.63 1010.80 1011.18 1011.31 1011.29 1010.86 1010.60 1009.58 1009.22 1006.90 1006.96 1006.28 1006.33 1006.42 1006.58 1006.63 1006.64
1016.54 1015.94 1015.74 1015.65 1015.62 1014.65 1014.56 1014.35 1014.05 1013.71 1012.10 1011.12 1010.62 1010.49 1010.51 1010.54 1010.36 1010.04 1009.91 1009.96 1010.19 1010.38 1010.59 1010.36 1010.62 1010.59 1010.43 1010.81 1010.92 1011.19 1011.31 1011.25 1011.57 1011.16 1010.20 1009.27 1009.06 1006.99 1006.53 1006.10 1006.17 1006.00 1006.45 1006.59 1006.80
1016.16 1015.62 1015.57 1015.25 1014.97 1014.66 1014.48 1014.06 1013.91 1012.95 1012.07 1011.50 1011.05 1011.04 1011.06 1010.88 1010.67 1010.57 1010.41 1010.25 1010.30 1010.43 1010.35 1010.35 1010.36 1010.60 1010.76 1010.84 1011.24 1011.20 1011.39 1011.00 1010.84 1010.63 1009.51 1009.76 1009.03 1006.86 1006.63 1006.40 1006.34 1006.21 1006.06 1006.23 1006.58
1015.98 1015.66 1015.52 1015.16 1014.90 1014.72 1014.32 1014.10 1013.37 1012.41 1011.97 1011.73 1011.48 1011.39 1011.25 1011.20 1011.09 1010.95 1010.83 1010.61 1010.68 1010.68 1010.45 1010.26 1010.21 1010.50 1010.73 1010.76 1010.86 1011.30 1011.70 1011.56 1010.94 1010.56 1009.82 1009.99 1007.79 1006.40 1006.54 1006.38 1006.36 1006.28 1006.52 1006.39 1006.30
1015.33 1015.53 1015.26 1014.93 1014.76 1014.59 1014.34 1014.01 1013.02 1012.52 1012.27 1012.04 1011.83 1011.67 1011.57 1011.57 1011.61 1011.31 1010.97 1010.63 1010.53 1010.69 1010.66 1010.66 1010.67 1010.83 1010.85 1010.97 1011.32 1011.58 1011.94 1012.26 1011.91 1011.45 1010.78 1008.66 1007.28 1006.94 1005.90 1006.20 1006.25 1006.30 1006.37 1006.36 1006.40
1015.83 1015.30 1015.08 1014.98 1014.84 1014.69 1014.43 1013.81 1013.21 1012.74 1012.43 1012.30 1012.08 1011.89 1011.78 1011.78 1011.84 1011.61 1011.09 1010.73 1010.67 1010.84 1010.98 1011.23 1011.20 1011.07 1010.87 1011.22 1011.49 1011.42 1011.95 1012.46 1012.40 1011.41 1009.93 1007.92 1006.92 1005.91 1005.80 1005.74 1006.17 1006.13 1006.06 1006.24 1006.16
1015.89 1015.33 1014.79 1014.79 1014.82 1014.89 1014.88 1014.27 1013.43 1012.78 1012.72 1012.54 1012.12 1012.05 1011.93 1011.93 1011.91 1011.74 1011.16 1010.91 1010.80 1010.93 1011.43 1011.65 1011.86 1011.41 1011.61 1010.99 1010.77 1011.56 1011.57 1012.19 1012.29 1011.87 1010.48 1008.55 1006.24 1006.03 1005.83 1005.74 1006.01 1006.20 1006.28 1005.99 1005.76
1016.46 1015.56 1014.94 1014.57 1015.31 1016.02 1015.47 1014.97 1014.24 1013.14 1012.73 1012.51 1012.38 1012.18 1012.16 1012.12 1011.94 1011.71 1011.18 1010.81 1010.82 1010.95 1011.32 1011.67 1011.91 1011.31 1010.90 1010.63 1010.89 1010.87 1011.08 1011.46 1011.61 1011.50 1010.88 1009.57 1006.35 1005.92 1005.75 1005.84 1006.04 1005.88 1005.77 1005.82 1005.66
1017.43 1016.50 1015.27 1014.89 1015.80 1016.34 1016.00 1015.36 1014.58 1013.65 1013.11 1012.87 1012.70 1012.60 1012.64 1012.51 1012.38 1011.74 1011.36 1011.16 1011.22 1011.25 1011.26 1011.86 1011.87 1011.22 1010.54 1011.32 1011.32 1010.94 1010.92 1011.21 1011.51 1011.54 1010.17 1009.21 1005.81 1006.05 1005.57 1005.58 1005.58 1005.47 1005.50 1005.51 1005.32
1018.02 1017.26 1016.52 1016.57 1017.44 1017.26 1016.99 1015.81 1014.86 1014.00 1013.63 1013.64 1013.29 1013.14 1013.20 1012.94 1012.77 1012.11 1011.89 1011.68 1011.71 1011.71 1011.79 1011.95 1011.68 1011.50 1010.70 1010.32 1010.78 1010.58 1010.65 1010.80 1010.76 1010.34 1009.14 1007.66 1005.87 1005.64 1005.21 1005.13 1005.14 1005.21 1005.16 1005.01 1004.88
1018.86 1019.25 1018.94 1018.00 1017.82 1017.96 1017.83 1016.71 1015.64 1014.94 1014.46 1014.22 1013.85 1014.05 1014.17 1013.81 1013.39 1012.87 1012.64 1012.40 1012.21 1012.16 1012.13 1012.12 1011.47 1011.57 1010.92 1010.62 1010.41 1009.97 1009.59 1009.51 1009.25 1008.81 1008.34 1006.75 1006.23 1004.97 1004.92 1004.83 1004.72 1004.62 1004.59 1004.48 1004.20
1019.87 1020.03 1019.90 1018.89 1018.53 1018.27 1017.67 1016.69 1016.27 1015.88 1015.74 1014.93 1014.79 1014.69 1014.89 1014.59 1014.16 1013.61 1013.47 1013.12 1012.58 1012.25 1012.13 1012.05 1011.46 1011.09 1010.27 1010.32 1010.00 1009.24 1008.52 1008.13 1007.68 1007.27 1006.74 1006.19 1005.27 1004.70 1004.60 1004.37 1004.50 1004.29 1004.08 1003.85 1003.55
1020.85 1020.69 1020.34 1019.20 1018.49 1018.33 1017.43 1016.96 1016.61 1016.73 1015.82 1015.60 1015.58 1015.36 1014.86 1014.43 1014.21 1013.84 1013.49 1013.10 1012.78 1012.57 1012.38 1012.30 1012.05 1011.50 1010.29 1010.10 1009.63 1008.40 1006.12 1006.04 1005.59 1005.66 1005.39 1004.83 1004.02 1004.04 1004.02 1003.99 1003.96 1003.73 1003.48 1003.26 1002.95
Thickness
5575 5579 5583 5586 5591 5595 5599 5603 5607 5611 5614 5617 5620 5623 5627 5631 5635 5641 5650 5664 5663 5667 5666 5669 5671 5674 5676 5673 5678 5680 5666 5670 5684 5689 5697 5712 5713 5730 5742 5742 5744 5754 5760 5772 5789
5575 5579 5583 5586 5589 5593 5597 5601 5605 5609 5612 5615 5618 5620 5623 5627 5634 5641 5658 5658 5658 5659 5660 5659 5659 5663 5662 5662 5665 5666 5663 5671 5688 5697 5695 5701 5705 5713 5721 5734 5735 5744 5758 5771 5780
5574 5579 5583 5587 5590 5593 5597 5600 5604 5607 5609 5611 5614 5617 5619 5623 5631 5649 5656 5654 5653 5652 5652 5651 5651 5652 5649 5654 5655 5660 5659 5668 5679 5695 5701 5704 5702 5705 5707 5717 5728 5731 5745 5760 5769
5575 5579 5583 5588 5591 5595 5598 5601 5603 5605 5606 5608 5610 5612 5616 5618 5628 5646 5648 5646 5646 5645 5645 5643 5643 5640 5639 5640 5647 5643 5655 5663 5673 5686 5689 5693 5698 5691 5696 5716 5723 5731 5740 5750 5758
5577 5580 5584 5588 5592 5597 5600 5602 5603 5605 5606 5606 5607 5608 5612 5620 5630 5640 5640 5640 5638 5638 5638 5636 5635 5634 5633 5635 5637 5636 5645 5652 5663 5671 5679 5681 5684 5686 5689 5702 5715 5724 5732 5738 5749
5579 5582 5587 5591 5595 5598 5601 5602 5603 5604 5605 5605 5605 5605 5609 5618 5636 5635 5633 5632 5632 5631 5631 5631 5631 5633 5631 5631 5631 5634 5636 5643 5651 5661 5668 5671 5682 5677 5693 5695 5700 5710 5721 5728 5737
5581 5585 5589 5593 5597 5600 5603 5604 5605 5605 5605 5605 5604 5604 5606 5622 5631 5629 5628 5628 5628 5627 5625 5628 5629 5626 5628 5625 5629 5629 5625 5634 5641 5650 5657 5668 5666 5675 5673 5677 5684 5699 5710 5716 5725
5585 5588 5592 5596 5599 5602 5605 5606 5607 5608 5607 5605 5602 5603 5613 5629 5628 5626 5625 5625 5624 5624 5623 5626 5625 5622 5621 5622 5620 5618 5617 5621 5636 5640 5651 5655 5660 5659 5659 5667 5686 5686 5694 5702 5713
5589 5591 5595 5598 5601 5606 5608 5610 5612 5611 5607 5604 5602 5603 5617 5629 5624 5628 5626 5622 5622 5619 5618 5621 5618 5609 5611 5609 5609 5609 5611 5613 5622 5630 5636 5642 5644 5651 5656 5659 5667 5677 5684 5695 5705
5593 5595 5597 5600 5602 5606 5609 5612 5610 5608 5602 5600 5602 5602 5620 5618 5623 5623 5625 5620 5616 5613 5609 5608 5604 5603 5599 5602 5598 5599 5603 5607 5612 5621 5629 5631 5630 5644 5648 5648 5653 5664 5674 5681 5694
5599 5600 5601 5604 5605 5605 5609 5611 5611 5608 5604 5609 5609 5608 5612 5618 5621 5620 5621 5614 5611 5606 5598 5595 5597 5594 5598 5596 5597 5594 5595 5597 5607 5615 5616 5624 5625 5632 5643 5648 5652 5655 5661 5673 5680
5602 5603 5604 5606 5607 5606 5604 5611 5605 5603 5603 5610 5607 5605 5609 5610 5604 5613 5617 5604 5601 5592 5590 5590 5589 5594 5591 5589 5587 5587 5589 5594 5601 5605 5606 5617 5622 5635 5646 5648 5653 5655 5657 5663 5667
5605 5606 5607 5608 5609 5609 5610 5607 5603 5601 5599 5608 5610 5608 5609 5606 5602 5607 5611 5604 5596 5588 5586 5583 5588 5588 5583 5584 5583 5584 5582 5580 5582 5592 5601 5605 5627 5628 5639 5643 5644 5648 5651 5654 5656
5609 5609 5609 5609 5609 5607 5609 5605 5603 5600 5598 5605 5609 5612 5609 5606 5600 5611 5610 5603 5592 5586 5581 5582 5583 5582 5579 5578 5580 5575 5578 5575 5573 5575 5579 5589 5600 5623 5626 5628 5630 5632 5639 5645 5646
5611 5612 5611 5607 5610 5610 5607 5603 5602 5599 5586 5606 5607 5617 5610 5603 5601 5604 5607 5598 5589 5584 5580 5580 5578 5575 5574 5577 5576 5569 5570 5566 5566 5570 5567 5585 5574 5609 5611 5617 5620 5623 5624 5628 5636
5613 5614 5612 5610 5605 5608 5603 5602 5601 5592 5585 5601 5605 5598 5597 5596 5596 5600 5597 5597 5590 5580 5577 5579 5576 5574 5573 5567 5567 5563 5560 5562 5551 5556 5562 5576 5573 5596 5601 5607 5611 5620 5618 5618 5619
5614 5614 5611 5609 5610 5605 5602 5602 5593 5588 5598 5592 5591 5592 5587 5584 5586 5584 5579 5579 5577 5567 5568 5569 5569 5566 5564 5558 5555 5557 5551 5548 5553 5555 5568 5562 5565 5592 5593 5595 5598 5603 5610 5610 5608
5612 5611 5608 5605 5603 5601 5601 5596 5586 5593 5588 5592 5589 5584 5580 5580 5578 5574 5571 5568 5567 5563 5560 5559 5557 5558 5558 5554 5550 5545 5544 5541 5535 5547 5560 5555 5568 5586 5586 5587 5587 5589 5591 5595 5598
5615 5608 5607 5604 5601 5599 5597 5586 5588 5587 5588 5582 5581 5575 5573 5573 5569 5566 5564 5565 5564 5558 5550 5543 5542 5548 5548 5546 5542 5533 5531 5534 5531 5536 5532 5562 5576 5577 5587 5574 5573 5574 5573 5576 5580
5606 5608 5604 5598 5596 5594 5590 5583 5584 5585 5583 5578 5568 5572 5564 5564 5558 5556 5557 5559 5555 5551 5547 5537 5527 5537 5539 5535 5531 5529 5527 5520 5520 5521 5533 5561 5563 5572 5571 5567 5563 5562 5564 5563 5568
5603 5605 5601 5594 5590 5587 5579 5577 5579 5583 5577 5569 5567 5563 5562 5558 5555 5549 5551 5550 5547 5543 5534 5528 5520 5525 5521 5525 5527 5517 5518 5516 5518 5519 5526 5537 5565 5569 5562 5561 5554 5552 5553 5559 5562
5592 5597 5593 5591 5581 5557 5570 5567 5567 5572 5572 5567 5562 5560 5555 5551 5547 5545 5543 5542 5539 5534 5523 5522 5512 5513 5520 5527 5521 5520 5518 5518 5512 5513 5517 5523 5549 5566 5559 5554 5550 5553 5554 5553 5555
5581 5581 5585 5584 5573 5565 5561 5560 5562 5564 5562 5557 5552 5552 5547 5543 5534 5537 5537 5536 5528 5521 5514 5508 5505 5507 5515 5506 5503 5506 5510 5512 5509 5506 5515 5519 5551 5550 5551 5548 5549 5549 5548 5546 5547
5573 5580 5575 5564 5545 5549 5544 5553 5553 5558 5554 5545 5544 5541 5534 5532 5530 5526 5521 5520 5514 5510 5506 5500 5502 5499 5505 5511 5505 5503 5505 5506 5506 5501 5520 5528 5541 5545 5546 5543 5543 5542 5542 5542 5541
5555 5547 5538 5556 5545 5531 5525 5534 5542 5542 5540 5535 5534 5525 5518 5516 5513 5511 5509 5502 5500 5497 5494 5491 5494 5493 5499 5500 5500 5504 5509 5511 5510 5518 5511 5532 5529 5541 5538 5538 5540 5541 5538 5538 5539
5545 5539 5526 5529 5520 5522 5523 5531 5529 5529 5520 5526 5519 5513 5501 5497 5499 5494 5489 5487 5485 5489 5487 5485 5488 5494 5499 5497 5495 5496 5510 5516 5520 5523 5523 5526 5529 5540 5538 5539 5534 5535 5534 5534 5536
5521 5518 5519 5525 5522 5520 5528 5525 5521 5508 5518 5511 5503 5495 5496 5497 5489 5483 5477 5475 5477 5478 5480 5480 5480 5482 5493 5495 5493 5496 5528 5528 5533 5532 5529 5526 5539 5541 5535 5533 5531 5532 5531 5530 5530